Regional Weather Roundup
Issued by NWS Sterling, VA

Home | Current Version | Previous Version | Text Only | Print | Product List | Glossary On
Versions: 1 2 3 4 5 6 7 8 9 10 11 12 13 14 15 16 17 18 19 20 21 22 23 24 25 26 27
000
ASUS41 KLWX 030010
RWRLWX

REGIONAL WEATHER ROUNDUP
NATIONAL WEATHER SERVICE BALTIMORE MD/WASHINGTON DC
700 PM EST FRI DEC 02 2016

Note: "FAIR" indicates few or no clouds below 12,000 feet
with no significant weather and/or obstructions to visibility.
 TC=TEMPERATURE CELSIUS

 * =Non NWS site. Station does not report precipitation (e.g. rain,
    snow, etc.), thunder, or fog.

DCZ001-MDZ009-015-VAZ040>042-051-053>054-030100-
WASHINGTON METRO

CITY           SKY/WX    TMP DP  RH WIND       PRES   REMARKS
WASHINGTON NAT MOCLDY    46  28  49 NW15G28   30.11R
DULLES         CLOUDY    43  28  55 NW15      30.11R
ANDREWS AFB    CLEAR     43  26  51 NW26      30.07R
FT BELVOIR     MOCLDY    44  28  53 NW17      30.10R
QUANTICO       CLEAR     44  29  55 N9        30.11R
COLLEGE PARK*  CLOUDY    43  28  56 W12G20    30.10R
LEESBURG*      CLOUDY    43  32  65 W13G21    30.12R
GAITHERSBURG*  CLOUDY    41  25  52 W16       30.13R

$$

MDZ006>007-011-014-030100-
BALTIMORE METRO

CITY           SKY/WX    TMP DP  RH WIND       PRES   REMARKS
BWI AIRPORT    CLOUDY    44  28  53 W12       30.09R
MD SCIENCE CTR   N/A     46  27  47 MISG      30.08R
MARTIN STATE   MOCLDY    46  30  53 W14G22    30.08R
ANNAPOLIS      MOCLDY    47  30  51 W9G23     30.09R
FORT MEADE*    CLOUDY    43  30  61 W9        30.12R

$$

MDZ012-015-019>023-030100-
MARYLAND EASTERN SHORE

CITY           SKY/WX    TMP DP  RH WIND       PRES   REMARKS
OCEAN CITY     CLEAR     42  30  62 NW8       30.06R
SALISBURY      CLEAR     44  30  57 NW6       30.06R
BAY BRIDGE AP* PTCLDY    45  30  57 NW18      30.09R
CAMBRIDGE*     CLEAR     45  30  57 NW12G22   30.07R
EASTON*        CLEAR     45  28  53 NW13G20   30.11R

$$

MDZ017>025-030100-
SOUTHERN MARYLAND

CITY           SKY/WX    TMP DP  RH WIND       PRES   REMARKS
PATUXENT RIVER PTCLDY    46  29  51 NW18      30.08R
ST INIGOES     CLEAR     47  31  53 VRB3      30.07R
LEONARDTOWN*   CLEAR     45  30  57 NW6       30.09R

$$

MDZ003>005-030100-
NORTH CENTRAL MARYLAND

CITY           SKY/WX    TMP DP  RH WIND       PRES   REMARKS
FREDERICK*     CLOUDY    43  30  61 W10       30.12R
HAGERSTOWN APT CLOUDY    42  27  55 W10       30.07R
WESTMINSTER*   CLOUDY    39  27  60 W8        30.05R

$$

MDZ501>502-030100-
WESTERN MARYLAND

CITY           SKY/WX    TMP DP  RH WIND       PRES   REMARKS
OAKLAND*       CLOUDY    28  28 100 W15G29    30.04R WCI  17
CUMBERLAND*    NOT AVBL

$$

VAZ025>031-030100-
SHENANDOAH VALLEY

CITY           SKY/WX    TMP DP  RH WIND       PRES   REMARKS
WINCHESTER*    CLOUDY    39  27  60 W10G24    30.10F
FRONT ROYAL*   CLOUDY    41  28  60 W6        30.11S
LURAY*         CLOUDY    41  32  70 W5        30.11S
NEW MARKET*    CLOUDY    39  26  60 N3        30.12R
STAUNTON*      CLOUDY    39  28  63 NW8       30.13R
WAYNESBORO*    MOCLDY    39  27  62 W6        30.10R

$$

WVZ021-048>050-054>055-030100-
EASTERN WEST VIRGINIA PANHANDLE

CITY           SKY/WX    TMP DP  RH WIND       PRES   REMARKS
MARTINSBURG    CLOUDY    41  27  57 W6G18     30.10R
PETERSBURG*    CLOUDY    40  27  59 W3        30.14S

$$

VAZ036>039-050-030100-
CENTRAL FOOTHILLS

CITY           SKY/WX    TMP DP  RH WIND       PRES   REMARKS
CHARLOTTESVILL PTCLDY    45  28  51 CALM      30.10R
CULPEPER*      PTCLDY    44  31  60 NW10      30.11R
ORANGE*          N/A     45  30  57 W3        30.11R
GORDONSVILLE*  FAIR      46  30  54 NW8       30.09R
WARRENTON*     FAIR      43  26  52 NW12G18   30.09R

$$

VAZ055>057-030100-
NORTH AND CENTRAL PIEDMONT

CITY           SKY/WX    TMP DP  RH WIND       PRES   REMARKS
FREDERICKSBRG* PTCLDY    45  32  60 NW9G16    30.09R
STAFFORD*      PTCLDY    42  31  65 N9        30.13S

$$

NCZ024-NYZ072-PAZ021-071-VAZ022-071-030100-
OTHER REGIONAL OBSERVATIONS

CITY           SKY/WX    TMP DP  RH WIND       PRES   REMARKS
NEW YORK CITY  MOCLDY    47  27  45 W13G22    29.92R
PHILADELPHIA   MOCLDY    45  27  49 W20G26    30.01R
PITTSBURGH     CLOUDY    38  31  76 W13G24    30.10R
ROANOKE        PTCLDY    44  28  53 NW17G29   30.14R
RICHMOND       CLEAR     48  31  51 SW5       30.07R
RALEIGH        PTCLDY    46  31  55 W5        30.11S

$$

ANZ530>537-030100-
MARINE OBSERVATIONS

STATION/POSITION TIME  TEMP    WIND        PRES
                       AIR SEA DIR/SP/G
                 (UTC) (F)     (DEG/KT/KT) (MB)
THOMAS PT LIGHT  0000   45 50  310/ 19/ 25   N/A

$$





USA.gov is the U.S. government's official web portal to all federal, state and local government web resources and services.